BTK7553 WIHH-WAHS

Flight info

Callsign BTK7553
Flight time 0h 38m
Altitude 29000
Route CA W45 PIALA
Aircraft A320/M-SDE3FGHIRWY/LB1

Departure

Time 2026-04-30 02:47
Airport Halim Perdanakusuma International Airport (WIHH)

Arrival

Time 2026-04-30 03:26
Airport Jenderal Ahmad Yani Airport (WAHS)
Time Latitude Longitude Altitude Speed Heading
2026-04-30 02:43 -6.26820 106.88505 94 ft 7 kts 158°
2026-04-30 02:44 -6.26864 106.88525 95 ft 7 kts 154°
2026-04-30 02:44 -6.26916 106.88530 93 ft 10 kts 210°
2026-04-30 02:44 -6.26961 106.88461 94 ft 14 kts 245°
2026-04-30 02:44 -6.27003 106.88371 92 ft 14 kts 245°
2026-04-30 02:45 -6.27045 106.88280 94 ft 14 kts 245°
2026-04-30 02:45 -6.27085 106.88193 94 ft 16 kts 245°
2026-04-30 02:45 -6.27137 106.88078 96 ft 20 kts 246°
2026-04-30 02:45 -6.27169 106.87954 95 ft 13 kts 266°
2026-04-30 02:46 -6.27207 106.87888 96 ft 10 kts 191°
2026-04-30 02:46 -6.27211 106.87922 96 ft 6 kts 53°
2026-04-30 02:46 -6.27203 106.87937 96 ft 0 kts 64°
2026-04-30 02:46 -6.27161 106.88029 95 ft 49 kts 65°
2026-04-30 02:47 -6.26912 106.88570 96 ft 118 kts 65°
2026-04-30 02:47 -6.26495 106.89485 103 ft 168 kts 66°
2026-04-30 02:47 -6.25995 106.90608 586 ft 180 kts 67°
2026-04-30 02:47 -6.25487 106.91774 1216 ft 184 kts 72°
2026-04-30 02:48 -6.25466 106.93049 1595 ft 192 kts 112°
2026-04-30 02:48 -6.26161 106.94274 1774 ft 212 kts 123°
2026-04-30 02:48 -6.27020 106.95577 1882 ft 235 kts 124°
2026-04-30 02:48 -6.27971 106.97002 2097 ft 255 kts 124°
2026-04-30 02:49 -6.28961 106.98510 2560 ft 261 kts 124°
2026-04-30 02:49 -6.29958 107.00053 3091 ft 264 kts 123°
2026-04-30 02:49 -6.30955 107.01612 3614 ft 267 kts 123°
2026-04-30 02:49 -6.31949 107.03193 4145 ft 268 kts 120°
2026-04-30 02:50 -6.32583 107.04953 4636 ft 271 kts 99°
2026-04-30 02:50 -6.32849 107.06820 5142 ft 273 kts 103°
2026-04-30 02:50 -6.33314 107.08675 5641 ft 275 kts 104°
2026-04-30 02:50 -6.33776 107.10516 6134 ft 277 kts 104°
2026-04-30 02:51 -6.34251 107.12422 6611 ft 279 kts 104°
2026-04-30 02:51 -6.34718 107.14294 7075 ft 281 kts 104°
2026-04-30 02:51 -6.35173 107.16101 7510 ft 283 kts 104°
2026-04-30 02:51 -6.35657 107.18025 7983 ft 285 kts 104°
2026-04-30 02:52 -6.36140 107.19963 8409 ft 287 kts 104°
2026-04-30 02:52 -6.36623 107.21912 8836 ft 288 kts 104°
2026-04-30 02:52 -6.37107 107.23873 9260 ft 290 kts 104°
2026-04-30 02:52 -6.37599 107.25860 9840 ft 294 kts 104°
2026-04-30 02:53 -6.38101 107.27887 10392 ft 309 kts 104°
2026-04-30 02:53 -6.38642 107.30062 10628 ft 333 kts 104°
2026-04-30 02:53 -6.39218 107.32371 11073 ft 346 kts 104°
2026-04-30 02:53 -6.39811 107.34738 11745 ft 351 kts 104°
2026-04-30 02:54 -6.40408 107.37133 12447 ft 355 kts 104°
2026-04-30 02:54 -6.41010 107.39556 13131 ft 359 kts 104°
2026-04-30 02:54 -6.41617 107.42003 13790 ft 362 kts 104°
2026-04-30 02:54 -6.42229 107.44473 14434 ft 366 kts 104°
2026-04-30 02:55 -6.42851 107.46971 15070 ft 370 kts 104°
2026-04-30 02:55 -6.43478 107.49493 15694 ft 374 kts 104°
2026-04-30 02:55 -6.44110 107.52034 16294 ft 377 kts 104°
2026-04-30 02:55 -6.44746 107.54604 16887 ft 380 kts 104°
2026-04-30 02:56 -6.45390 107.57198 17457 ft 384 kts 104°
2026-04-30 02:56 -6.46039 107.59807 18001 ft 387 kts 104°
2026-04-30 02:56 -6.46695 107.62446 18556 ft 390 kts 104°
2026-04-30 02:56 -6.47353 107.65100 19073 ft 393 kts 104°
2026-04-30 02:57 -6.48016 107.67778 19592 ft 397 kts 104°
2026-04-30 02:57 -6.48684 107.70480 20094 ft 400 kts 104°
2026-04-30 02:57 -6.49351 107.73168 20575 ft 403 kts 104°
2026-04-30 02:57 -6.50031 107.75909 21044 ft 406 kts 104°
2026-04-30 02:58 -6.50724 107.78701 21513 ft 409 kts 104°
2026-04-30 02:58 -6.51403 107.81453 21960 ft 411 kts 104°
2026-04-30 02:58 -6.52101 107.84291 22414 ft 414 kts 104°
2026-04-30 02:58 -6.52797 107.87112 22842 ft 417 kts 104°
2026-04-30 02:59 -6.53500 107.89949 23257 ft 420 kts 104°
2026-04-30 02:59 -6.54199 107.92766 23665 ft 422 kts 104°
2026-04-30 02:59 -6.54909 107.95638 24063 ft 425 kts 104°
2026-04-30 02:59 -6.55623 107.98534 24456 ft 428 kts 104°
2026-04-30 03:00 -6.56341 108.01446 24839 ft 430 kts 104°
2026-04-30 03:00 -6.57067 108.04373 25216 ft 433 kts 104°
2026-04-30 03:00 -6.57799 108.07316 25577 ft 435 kts 104°
2026-04-30 03:00 -6.58532 108.10274 25927 ft 437 kts 104°
2026-04-30 03:01 -6.59270 108.13253 26270 ft 440 kts 104°
2026-04-30 03:01 -6.60009 108.16242 26600 ft 442 kts 104°
2026-04-30 03:01 -6.60754 108.19254 26921 ft 444 kts 104°
2026-04-30 03:01 -6.61501 108.22276 27246 ft 447 kts 104°
2026-04-30 03:02 -6.62252 108.25314 27557 ft 449 kts 104°
2026-04-30 03:02 -6.63003 108.28368 27886 ft 450 kts 103°
2026-04-30 03:02 -6.63758 108.31426 28267 ft 450 kts 104°
2026-04-30 03:02 -6.64516 108.34489 28581 ft 452 kts 104°
2026-04-30 03:03 -6.65273 108.37561 28834 ft 454 kts 104°
2026-04-30 03:03 -6.67533 108.46759 28922 ft 458 kts 104°
2026-04-30 03:04 -6.69084 108.53077 28920 ft 469 kts 104°
2026-04-30 03:04 -6.70552 108.59573 28921 ft 483 kts 101°
2026-04-30 03:05 -6.71618 108.66294 28921 ft 489 kts 98°
2026-04-30 03:05 -6.72555 108.73084 28920 ft 490 kts 98°
2026-04-30 03:06 -6.73578 108.79849 28915 ft 484 kts 99°
2026-04-30 03:06 -6.74111 108.83135 28697 ft 467 kts 100°
2026-04-30 03:06 -6.74635 108.86307 28445 ft 452 kts 99°
2026-04-30 03:07 -6.75147 108.89392 28195 ft 444 kts 99°
2026-04-30 03:07 -6.75649 108.92445 27945 ft 440 kts 99°
2026-04-30 03:07 -6.76137 108.95479 27634 ft 437 kts 99°
2026-04-30 03:07 -6.76612 108.98477 27004 ft 433 kts 99°
2026-04-30 03:08 -6.77082 109.01458 26379 ft 429 kts 98°
2026-04-30 03:08 -6.77549 109.04411 25767 ft 425 kts 98°
2026-04-30 03:08 -6.78015 109.07334 25167 ft 421 kts 98°
2026-04-30 03:08 -6.78478 109.10224 24569 ft 417 kts 98°
2026-04-30 03:09 -6.78937 109.13086 23991 ft 412 kts 98°
2026-04-30 03:09 -6.79378 109.15917 23419 ft 408 kts 97°
2026-04-30 03:09 -6.79785 109.18721 22882 ft 403 kts 97°
2026-04-30 03:09 -6.80170 109.21499 22363 ft 398 kts 96°
2026-04-30 03:10 -6.80545 109.24241 21871 ft 393 kts 96°
2026-04-30 03:10 -6.80917 109.26946 21382 ft 389 kts 96°
2026-04-30 03:10 -6.81207 109.29644 20645 ft 390 kts 92°
2026-04-30 03:10 -6.81324 109.32369 20070 ft 388 kts 90°
2026-04-30 03:11 -6.81397 109.35063 19580 ft 383 kts 90°
2026-04-30 03:11 -6.81447 109.37726 19084 ft 379 kts 90°
2026-04-30 03:11 -6.81489 109.40368 18584 ft 376 kts 90°
2026-04-30 03:11 -6.81536 109.42988 18077 ft 373 kts 90°
2026-04-30 03:12 -6.81590 109.45560 17576 ft 371 kts 90°
2026-04-30 03:12 -6.81651 109.48145 17066 ft 369 kts 90°
2026-04-30 03:12 -6.81713 109.50717 16560 ft 367 kts 90°
2026-04-30 03:12 -6.81777 109.53276 16056 ft 365 kts 90°
2026-04-30 03:13 -6.81844 109.55858 15548 ft 363 kts 91°
2026-04-30 03:13 -6.81910 109.58355 15054 ft 361 kts 91°
2026-04-30 03:13 -6.81971 109.60874 14556 ft 359 kts 90°
2026-04-30 03:13 -6.82031 109.63377 14053 ft 357 kts 90°
2026-04-30 03:14 -6.82091 109.65868 13558 ft 355 kts 91°
2026-04-30 03:14 -6.82151 109.68377 13047 ft 362 kts 91°
2026-04-30 03:14 -6.82211 109.70912 12526 ft 363 kts 92°
2026-04-30 03:14 -6.82277 109.73442 11996 ft 361 kts 92°
2026-04-30 03:15 -6.82342 109.75955 11465 ft 358 kts 92°
2026-04-30 03:15 -6.82402 109.78452 10920 ft 356 kts 92°
2026-04-30 03:15 -6.82458 109.80925 10469 ft 350 kts 92°
2026-04-30 03:15 -6.82512 109.83319 10332 ft 335 kts 92°
2026-04-30 03:16 -6.82565 109.85609 10202 ft 322 kts 92°
2026-04-30 03:16 -6.82615 109.87816 10078 ft 309 kts 92°
2026-04-30 03:16 -6.82665 109.89944 9928 ft 299 kts 92°
2026-04-30 03:17 -6.82696 109.91589 8575 ft 305 kts 99°
2026-04-30 03:17 -6.82996 109.93823 7839 ft 321 kts 96°
2026-04-30 03:17 -6.83121 109.96125 5681 ft 340 kts 90°
2026-04-30 03:18 -6.83089 109.98554 3928 ft 350 kts 88°
2026-04-30 03:18 -6.83046 110.00972 2931 ft 339 kts 89°
2026-04-30 03:18 -6.83028 110.03271 2390 ft 316 kts 91°
2026-04-30 03:18 -6.83040 110.05396 2086 ft 290 kts 91°
2026-04-30 03:19 -6.83071 110.07331 1918 ft 265 kts 92°
2026-04-30 03:19 -6.83112 110.09146 1798 ft 257 kts 92°
2026-04-30 03:19 -6.83156 110.10941 1687 ft 256 kts 92°
2026-04-30 03:19 -6.83203 110.12725 1597 ft 254 kts 92°
2026-04-30 03:20 -6.83246 110.14476 1602 ft 239 kts 92°
2026-04-30 03:20 -6.83283 110.16045 1601 ft 210 kts 91°
2026-04-30 03:20 -6.83317 110.17448 1604 ft 195 kts 91°
2026-04-30 03:20 -6.83349 110.18790 1605 ft 190 kts 92°
2026-04-30 03:21 -6.83392 110.20112 1604 ft 188 kts 97°
2026-04-30 03:21 -6.83741 110.21365 1611 ft 187 kts 116°
2026-04-30 03:21 -6.84492 110.22427 1611 ft 187 kts 130°
2026-04-30 03:21 -6.85334 110.23421 1608 ft 186 kts 130°
2026-04-30 03:22 -6.86173 110.24415 1610 ft 186 kts 130°
2026-04-30 03:22 -6.87013 110.25409 1612 ft 186 kts 130°
2026-04-30 03:22 -6.87852 110.26402 1609 ft 186 kts 130°
2026-04-30 03:22 -6.88680 110.27383 1611 ft 187 kts 129°
2026-04-30 03:23 -6.89536 110.28397 1609 ft 188 kts 129°
2026-04-30 03:23 -6.90371 110.29385 1608 ft 188 kts 129°
2026-04-30 03:23 -6.91217 110.30388 1483 ft 188 kts 129°
2026-04-30 03:23 -6.92037 110.31359 1307 ft 174 kts 129°
2026-04-30 03:24 -6.92791 110.32252 1088 ft 160 kts 129°
2026-04-30 03:24 -6.93490 110.33076 850 ft 150 kts 129°
2026-04-30 03:24 -6.94152 110.33863 678 ft 146 kts 128°
2026-04-30 03:24 -6.94798 110.34639 503 ft 144 kts 128°
2026-04-30 03:25 -6.95438 110.35401 300 ft 142 kts 129°
2026-04-30 03:25 -6.96077 110.36158 86 ft 142 kts 129°
2026-04-30 03:25 -6.96705 110.36903 8 ft 132 kts 130°
2026-04-30 03:25 -6.97141 110.37418 4 ft 54 kts 130°
2026-04-30 03:26 -6.97305 110.37616 5 ft 19 kts 123°
2026-04-30 03:26 -6.97335 110.37657 5 ft 2 kts 242°
2026-04-30 03:26 -6.97316 110.37621 5 ft 13 kts 309°
2026-04-30 03:26 -6.97256 110.37553 5 ft 13 kts 311°
2026-04-30 03:27 -6.97196 110.37482 4 ft 14 kts 310°
2026-04-30 03:27 -6.97131 110.37418 4 ft 12 kts 338°
2026-04-30 03:27 -6.97071 110.37439 9 ft 5 kts 42°
2026-04-30 03:27 -6.97046 110.37462 13 ft 8 kts 42°
2026-04-30 03:28 -6.97003 110.37498 16 ft 8 kts 39°
2026-04-30 03:28 -6.96968 110.37526 18 ft 5 kts 39°
2026-04-30 03:28 -6.96940 110.37550 18 ft 7 kts 39°
2026-04-30 03:28 -6.96897 110.37549 18 ft 11 kts 324°
2026-04-30 03:29 -6.96849 110.37494 19 ft 10 kts 310°
2026-04-30 03:29 -6.96817 110.37455 19 ft 5 kts 310°
2026-04-30 03:29 -6.96795 110.37440 19 ft 3 kts 356°
2026-04-30 03:29 -6.96781 110.37450 19 ft 2 kts 44°
2026-04-30 03:30 -6.96773 110.37458 19 ft 4 kts 44°
2026-04-30 03:30 -6.96753 110.37476 19 ft 1 kts 40°
2026-04-30 03:30 -6.96747 110.37481 19 ft 2 kts 40°
2026-04-30 03:30 -6.96739 110.37487 19 ft 0 kts 39°
2026-04-30 03:49 -6.96750 110.37478 20 ft 3 kts 40°
2026-04-30 03:49 -6.96759 110.37470 19 ft 0 kts 40°
2026-04-30 03:49 -6.96773 110.37459 19 ft 3 kts 40°
2026-04-30 03:49 -6.96788 110.37447 19 ft 1 kts 28°
2026-04-30 03:50 -6.96795 110.37443 19 ft 1 kts 352°
2026-04-30 03:50 -6.96803 110.37444 19 ft 1 kts 325°
2026-04-30 03:50 -6.96810 110.37449 19 ft 1 kts 317°
2026-04-30 03:50 -6.96816 110.37455 19 ft 1 kts 313°
2026-04-30 03:51 -6.96821 110.37460 19 ft 0 kts 311°